OPS 7218 (TRANSIT 16) 1 02807U 67048A 25258.83066985 .00000088 00000+0 12073-3 0 9990 2 02807 89.6819 356.8857 0020338 16.1881 103.1344 13.50695002870892 OPS 4947 (TRANSIT 17) 1 02965U 67092A 25258.84529000 .00000093 00000+0 11935-3 0 9999 2 02965 89.2490 31.1127 0049250 130.0630 342.1196 13.53424393859087 OPS 7034 (TRANSIT 18) 1 03133U 68012A 25258.77861998 .00000115 00000+0 15828-3 0 9997 2 03133 90.0194 273.4391 0075836 66.1478 107.4636 13.51537042557303 NNSS 19 (TRANSIT 19) 1 04507U 70067A 25258.65798777 .00000116 00000+0 14970-3 0 9995 2 04507 89.9951 234.5057 0171479 187.5614 172.2949 13.51276550710328 NNSS 20 (TRANSIT 20) 1 06909U 73081A 25258.69374668 .00000193 00000+0 18787-3 0 9990 2 06909 89.8446 256.4250 0154187 343.0935 16.5121 13.71384031791545 TRANSAT 1 10457U 77106A 25258.80206020 .00000077 00000+0 10596-3 0 9995 2 10457 89.6399 81.7417 0027444 87.5714 283.9583 13.48924829355588 NOVA 1 1 12458U 81044A 25258.78211463 .00000076 00000+0 15971-3 0 9999 2 12458 89.8463 92.6593 0013918 354.1507 17.0945 13.23262665140233 NOVA 3 1 15362U 84110A 25258.79332498 .00000068 00000+0 14117-3 0 9998 2 15362 90.1137 79.5301 0030722 208.9903 162.1801 13.23029860975363 OSCAR 30 1 15935U 85066A 25258.59451809 .00000086 00000+0 14275-3 0 9996 2 15935 90.1609 98.4353 0166983 333.0569 83.8306 13.36055617952768 OSCAR 24 1 15936U 85066B 25258.78440602 .00000082 00000+0 13518-3 0 9992 2 15936 90.1727 90.7819 0168153 338.9699 30.7785 13.35914718954692 POLAR BEAR 1 17070U 86088A 25258.86741861 .00000110 00000+0 10270-3 0 9992 2 17070 89.6231 187.2587 0040538 28.3911 37.2107 13.75225527947715 OSCAR 27 1 18361U 87080A 25258.75426213 .00000100 00000+0 15028-3 0 9993 2 18361 90.3655 76.0123 0105596 116.2056 244.9994 13.44882164863745 OSCAR 29 1 18362U 87080B 25258.79874187 .00000098 00000+0 14809-3 0 9997 2 18362 90.3665 76.4658 0106731 138.6259 234.2727 13.44427522863287 OSCAR 23 1 19070U 88033A 25258.81835426 .00000067 00000+0 11450-3 0 9994 2 19070 90.3256 13.6269 0191017 65.2895 44.2210 13.27768289810864 OSCAR 32 1 19071U 88033B 25258.80650581 .00000049 00000+0 80475-4 0 9995 2 19071 90.3260 13.7540 0189165 52.3676 57.8981 13.27935397810982 NOVA 2 1 19223U 88052A 25258.78920881 .00000059 00000+0 12025-3 0 9991 2 19223 89.9782 78.4117 0028662 255.1005 115.5959 13.22921306797852 OSCAR 25 1 19419U 88074A 25258.81614973 .00000086 00000+0 13102-3 0 9995 2 19419 90.0369 19.9213 0097599 136.5254 336.9546 13.42601011814607 OSCAR 31 1 19420U 88074B 25258.83945425 .00000080 00000+0 12074-3 0 9999 2 19420 90.0386 20.2570 0095916 130.7357 350.7984 13.42565243814718